Location: Noulens
(43.8099°N, 0.1664°E)
Time: 03:08:01
(UTC+00:00)

STARLINK-1331 - Pass Details

Date: 07 June 2020
Orbit: 379 x 380 km, 53.0° (Epoch: 09 July)

Event Time Altitude Azimuth Distance (km) Brightness Sun altitude
Rises 02:57:25 0° 307° (NW) 2,261 6.7 -11.8°
Reaches altitude 10° 02:59:32 10° 314° (NW) 1,405 5.7 -11.5°
Maximum altitude 03:02:34 46° 29° (NNE) 528 4.1 -11.1°
Drops below altitude 10° 03:05:36 10° 104° (ESE) 1,399 6.1 -10.8°
Sets 03:07:41 0° 111° (ESE) 2,248 7.1 -10.5°
